Погода в Мурафе

Украина / Винницкая область     48°45′59″N   28°13′04″E
темп.,
°C
ветер,
м/с
пор.,
м/с
влажн.,
%
обл.,
%
осадки,
мм/ч
давл.,
гПа
погр.,
м
17 мая, пн
пн1700:00+15в228394 0.4 100723
03:00+13ссв1293100 1.3 100632
06:00+13с3491100 0.2 100575
09:00+14с4890100 0.3 1006346
12:00+17ссв3476100 0.4 1005610
15:00+19всв116897 2.1 1004956
18:00+16сз018397 3.6 100314
21:00+14ююз118533 5.9 100311
18 мая, вт
вт1800:00+12ю22897 0.0 100311
03:00+11в2292100 0.0 100211
06:00+12в2294100 0.0 100225
09:00+16ююв3484100 0.8 1002296
12:00+15ю4685100 3.8 1002345
15:00+15ю1379100 8.1 1002381
18:00+13ссз2390100 0.5 100275
21:00+12зсз4997100 2.4 1002379
19 мая, ср
ср1900:00+12сз91595100 5.9 1003702
03:00+10зсз91695100 13.1 1003668
06:00+10зсз111996100 10.7 1003869
09:00+10сз91791100 16.1 1006790
12:00+13сз9138299 0.2 10071162
15:00+16зсз8127397 0.9 10081599
18:00+15зсз811785 1.1 10091164
21:00+11зсз37900 1.3 1010117
20 мая, чт
чт2000:00+9зюз35940 0.0 101284
03:00+8зсз22925 0.0 101225
06:00+9юз119189 0.0 101212
09:00+13юз0180100 0.0 1012210
12:00+15ю1276100 1.1 1012310
15:00+13ю2392100 3.8 1012220
18:00+13ю2291100 0.7 1012176
21:00+11ю2296100 0.9 101337
21 мая, пт
пт2100:00+11ююв0094100 0.0 101310
03:00+11ссв2297100 1.3 101364
06:00+11св2498100 1.1 1013138
09:00+12в2598100 4.4 1013236
12:00+13ююз2392100 0.1 1014276
15:00+12сз3393100 0.3 1014289
18:00+12ссз4591100 0.1 1015409
21:00+11ссз4695100 0.1 1016207